CZ-6A DEB, 54553

Orbit data source: Space-Track

CZ-6A DEB, 54553 is space debris in SSO originally from a launch on Fri, 11 Nov 2022 UTC launched from the Taiyaun Space Center, China (TSC). Debris objects in space refer to the collection of defunct objects orbiting the Earth. Examples of debris include non-operational satellites, rocket bodies, and fragments generated from explosions, collisions, or faulty payload assembly.

Loading next visibility...
Identifier
54553, 2022-151LD
Orbit
SSO
Country
Flag of CNCN / PRC
Related business
Manufacturer
SAST
Mission
Spacecraft
Bus & Motor
Unknown
Mass
Unknown
Launch date (UTC)
2022-11-11 (4 years ago)
Launch vehicle
Unknown
Launch site
Taiyaun Space Center, China (TSC)
Object type
Payload
Rocket body
Debris
Shape & HBR
Unknown shape, 0.1 m
Radar Cross Section
Small (<0.1 m²)

Expand to show TLE details & history
Last TLE update: 2 days ago

TLE from 2 days ago
0 CZ-6A DEB
1 54553U 22151LD  26171.15799910  .00041316  00000-0  31293-2 0  9996
2 54553  98.6399 255.3938 0037207 225.0790 134.7411 15.01591438119927
Epoch: 2026-06-20T03:47Z
TLE epoch observation values (Epoch: 2026-06-20T03:47:31.122Z)
Latitude
-0.00001°
Longitude
-69.86252°
Altitude
583.244 km
Speed
7.559 km/s
True Right ascension
17h 01m 34s
True Declination
0° 00' 00"
Sunlit
Object was in full shadow at epoch
Visualization orbit readout
Latitude
Unknown
Longitude
Unknown
Altitude
Unknown
Speed
Unknown
Apparent Right ascension
Unknown
Apparent Declination
Unknown
Sunlit
N/A
Visualization observer readout
Local Sidereal Time
21:23:23
Azimuth
Unknown
Elevation
Unknown
Doppler factor
Unknown
Orbital elements
Apogee altitude
584.847 km
Perigee altitude
533.224 km
Semi-major axis
6,937.172 km
Eccentricity
0.00372
Inclination
98.6399°
RAAN
255.3938°
Arg. of periapsis
225.079°
True anomaly
135.04295°
Mean anomaly
134.7411°
Eccentric anomaly
134.89212°
Mean motion
3.75638 °/min
Orbital period
95.84 mins
BSTAR
0.0031293
Loading maneuver chart data...
Computing Atmospheric mass density...
Loading historical data...
Loading historical data...
Loading historical data...
Loading historical data...
Loading historical data...
Loading historical data...
Loading historical data...

Documentation

Showing up to 5 results
|